User: anonymous   Login
Location: Sabalos
(43.2860°N, 0.1414°E)
Time: 08:43:48
(UTC+00:00)
Language:

GP-B - Orbit

View from above orbital plane
View from above orbital plane
View from above satellite
View from above satellite

Ground track
Ground track

The orbit data is extracted from the following two-line orbital elements,

1 28230U 04014A   20269.77991975 +.00000109 +00000-0 +12622-4 0  9994
2 28230 089.8102 096.3696 0002305 104.6115 255.5364 14.78750371343117
Epoch (UTC): 25 September 2020 18:43:05
Eccentricity: 0.0002305
inclination: 89.8102°
perigee height: 631 km
apogee height: 635 km
right ascension of ascending node: 96.3696°
argument of perigee: 104.6115°
revolutions per day: 14.78750371
mean anomaly at epoch: 255.5364°
orbit number at epoch: 34311

The dashed part of the orbit path shows where the satellite is in the earth's shadow,  

DLR